Weather History for KPHP - August, 2013

Change the Weather History Date:

Sunday, August 11, 2013

  Actual Average Record
Temperature  
Mean Temperature 67 °F 75 °F  
Max Temperature 73 °F 90 °F 109 °F (1959)
Min Temperature 60 °F 60 °F 41 °F (2004)
Degree Days  
Heating Degree Days 0 0  
Month to date heating degree days 0 0  
Since 1 June heating degree days 67 71  
Since 1 July heating degree days 3 8  
Cooling Degree Days 2 10  
Month to date cooling degree days 58 119  
Year to date cooling degree days 539 574  
Since 1 June cooling degree days 518 547  
Growing Degree Days 16 (Base 50)    
Moisture  
Dew Point 61 °F    
Average Humidity 82    
Maximum Humidity 100    
Minimum Humidity 64    
Precipitation  
Precipitation 0.05 in 0.05 in 0.91 in (1950)
Month to date precipitation 1.02 0.54  
Year to date precipitation 10.17 12.42  
Sea Level Pressure  
Sea Level Pressure 30.08 in    
Wind  
Wind Speed 5 mph (ENE)    
Max Wind Speed 30 mph    
Max Gust Speed 35 mph    
Visibility 7 miles    
Events Fog , Rain , Thunderstorm    
T = Trace of Precipitation, MM = Missing Value Source: NWS Daily Summary

Daily Weather History Graph

Daily Weather History Graph

Search for Another Location

Airport or City:

Trip Planner

Search our weather history database for the weather conditions in past years. The results will help you decide how hot, cold, wet, or windy it might be!

Date:

Astronomy

Aug. 11, 2013 Rise Set
Actual Time 5:45 AM MDT 7:56 PM MDT
Civil Twilight 5:14 AM MDT 8:28 PM MDT
Nautical Twilight 4:34 AM MDT 9:07 PM MDT
Astronomical Twilight 3:51 AM MDT 9:50 PM MDT
Moon 10:48 AM MDT (8/11) 9:59 PM MDT (8/11)
Length of Visible Light 15h 13m
Length of Day
14h 10m
Waxing Crescent, 22% of the Moon is Illuminated
Aug 11
Waxing Crescent
Aug 14
First Quarter
Aug 20
Full
Aug 28
Last Quarter
Sep 5
New

Hourly Weather History & Observations

Time (MDT) Temp. Dew Point Humidity Pressure Visibility Wind Dir Wind Speed Gust Speed Precip Events Conditions
12:55 AM 66.0 °F 62.1 °F 87% 30.04 in 10.0 mi NE 8.1 mph - N/A   Overcast
1:55 AM 64.9 °F 61.0 °F 87% 30.07 in 10.0 mi NNW 6.9 mph - 0.00 in Rain , Thunderstorm Light Rain
2:00 AM 64.4 °F 60.8 °F 88% 30.12 in 8.0 mi NNW 10.4 mph - 0.01 in Rain , Thunderstorm Light Thunderstorms and Rain
2:18 AM 64.4 °F 60.8 °F 88% 30.02 in 7.0 mi East 23.0 mph - 0.04 in Rain , Thunderstorm Thunderstorms and Rain
2:29 AM 64.4 °F 60.8 °F 88% 30.00 in 10.0 mi ENE 23.0 mph 34.5 mph 0.05 in Rain , Thunderstorm Light Thunderstorms and Rain
2:39 AM 64.4 °F 60.8 °F 88% 30.03 in 10.0 mi SW 10.4 mph 27.6 mph 0.05 in   Overcast
2:46 AM 64.4 °F 62.6 °F 94% 30.03 in 10.0 mi Variable 3.5 mph 16.1 mph 0.05 in   Mostly Cloudy
2:55 AM 66.0 °F 61.0 °F 84% 29.98 in 10.0 mi SW 8.1 mph - 0.05 in   Scattered Clouds
3:55 AM 64.0 °F 61.0 °F 90% 30.00 in 10.0 mi NNW 10.4 mph - N/A   Partly Cloudy
4:55 AM 62.1 °F 59.0 °F 90% 30.01 in 8.0 mi Calm Calm - N/A   Clear
5:51 AM 60.8 °F 59.0 °F 94% 30.10 in 8.0 mi SW 5.8 mph - N/A   Scattered Clouds
5:55 AM 62.1 °F 59.0 °F 90% 30.05 in 9.0 mi West 3.5 mph - N/A   Mostly Cloudy
6:22 AM 62.6 °F 60.8 °F 94% 30.11 in 7.0 mi NW 3.5 mph - N/A   Overcast
6:36 AM 62.6 °F 60.8 °F 94% 30.11 in 1.8 mi Calm Calm - N/A   Overcast
6:48 AM 62.6 °F 60.8 °F 94% 30.12 in 0.8 mi Calm Calm - N/A   Overcast
6:55 AM 62.1 °F 61.0 °F 96% 30.08 in 0.5 mi Calm Calm - N/A Fog Fog
7:40 AM 62.6 °F 62.6 °F 100% 30.12 in 1.2 mi ENE 5.8 mph - N/A   Overcast
7:55 AM 63.0 °F 62.1 °F 97% 30.09 in 1.2 mi ENE 8.1 mph - N/A   Overcast
8:06 AM 62.6 °F 62.6 °F 100% 30.12 in 0.5 mi ENE 8.1 mph - N/A Fog Fog
8:23 AM 62.6 °F 62.6 °F 100% 30.13 in 2.0 mi East 8.1 mph - N/A   Overcast
8:34 AM 62.6 °F 62.6 °F 100% 30.12 in 1.5 mi ENE 8.1 mph - N/A   Overcast
8:53 AM 62.6 °F 62.6 °F 100% 30.12 in 2.5 mi NE 10.4 mph - N/A   Overcast
8:55 AM 63.0 °F 62.1 °F 97% 30.09 in 3.0 mi ENE 10.4 mph - N/A   Overcast
9:55 AM 64.0 °F 62.1 °F 93% 30.10 in 5.0 mi NE 8.1 mph - N/A   Overcast
10:55 AM 64.0 °F 61.0 °F 90% 30.11 in 6.0 mi NE 8.1 mph - N/A   Overcast
11:33 AM 64.4 °F 60.8 °F 88% 30.14 in 9.0 mi ENE 8.1 mph - N/A   Overcast
11:51 AM 64.4 °F 60.8 °F 88% 30.15 in 10.0 mi East 4.6 mph - N/A   Overcast
11:55 AM 64.9 °F 60.1 °F 84% 30.11 in 10.0 mi ESE 3.5 mph - N/A   Overcast
12:43 PM 68.0 °F 60.8 °F 78% 30.14 in 10.0 mi Calm Calm - N/A   Overcast
12:55 PM 68.0 °F 60.1 °F 76% 30.10 in 10.0 mi ESE 3.5 mph - N/A   Overcast
1:55 PM 71.1 °F 60.1 °F 68% 30.09 in 10.0 mi SE 3.5 mph - N/A   Overcast
2:41 PM 71.6 °F 60.8 °F 69% 30.12 in 10.0 mi SSE 5.8 mph - N/A   Scattered Clouds
2:55 PM 72.0 °F 60.1 °F 66% 30.07 in 10.0 mi East 6.9 mph - N/A   Clear
3:55 PM 71.1 °F 60.1 °F 68% 30.07 in 10.0 mi Calm Calm - N/A   Clear
4:55 PM 72.0 °F 60.1 °F 66% 30.06 in 10.0 mi SE 3.5 mph - N/A   Clear
5:55 PM 72.0 °F 60.1 °F 66% 30.04 in 10.0 mi East 5.8 mph - N/A   Clear
6:55 PM 73.0 °F 60.1 °F 64% 30.02 in 10.0 mi East 6.9 mph - N/A   Clear
7:55 PM 66.9 °F 61.0 °F 81% 30.04 in 10.0 mi East 5.8 mph - N/A   Clear
8:55 PM 64.9 °F 60.1 °F 84% 30.06 in 10.0 mi ENE 4.6 mph - N/A   Clear
9:55 PM 63.0 °F 59.0 °F 87% 30.06 in 10.0 mi Calm Calm - N/A   Clear
10:55 PM 63.0 °F 59.0 °F 87% 30.06 in 10.0 mi East 3.5 mph - N/A   Clear
11:55 PM 63.0 °F 59.0 °F 87% 30.04 in 10.0 mi East 8.1 mph - N/A   Clear